Terminal Aerodrome Forecast
Issued by NWS

Home | Current Version | Previous Version | Text Only | Print | Product List | Glossary On
Versions: 1 2 3 4 5 6 7 8 9 10 11 12 13 14 15 16
000
FTUS44 KCRP 292300
TAFALI
TAF
KALI 292340Z 3000/3024 15007KT P6SM SCT035 BKN080
     FM300600 VRB03KT P6SM SCT012 BKN060
      TEMPO 3008/3012 BKN012
     FM301400 16007KT P6SM BKN018 BKN080
     FM301800 15010KT P6SM SCT040 BKN120 PROB30 3018/3022 -TSRA
      BKN035CB=

USA.gov is the U.S. government's official web portal to all federal, state and local government web resources and services.